This demonstration page uses our WeatherBlox Daily Observations layout. Learn more.

Left ArrowRight Arrow

38.20091, -84.87328

Hourly Observations for July 7, 2020

Temp ( °F °C ) Dew Point ( °F °C ) Humidity (%) Winds ( mph kmh ) Pressure ( in mb ) Visibility ( mi km ) Precip ( " mm )
12:53 am 00:53 Clear 73 22.8 67 19.4 81 81 Calm 29.98 1015 10 16 0.00 0.00
1:53 am 01:53 Clear 74 23.3 67 19.4 79 79 Calm 29.98 1015 10 16 0.00 0.00
2:53 am 02:53 Clear 72 22.2 67 19.4 84 84 Calm 29.99 1016 10 16 0.00 0.00
3:53 am 03:53 Clear 71 21.7 67 19.4 87 87 Calm 29.97 1015 10 16 0.00 0.00
4:53 am 04:53 Clear 70 21.1 66 18.9 87 87 Calm 29.96 1015 10 16 0.00 0.00
5:53 am 05:53 Clear 70 21.1 66 18.9 87 87 Calm 29.97 1015 10 16 0.00 0.00
6:53 am 06:53 Sunny 71 21.7 67 19.4 87 87 Calm 29.98 1015 10 16 0.00 0.00
7:53 am 07:53 Sunny 74 23.3 68 20 82 82 Calm 29.99 1016 10 16 0.00 0.00
8:53 am 08:53 Sunny 77 25 68 20 74 74 WNW 3 6 30.01 1016 10 16 0.00 0.00
9:53 am 09:53 Sunny 81 27.2 70 21.1 69 69 ENE 3 6 30.01 1016 10 16 0.00 0.00
10:53 am 10:53 Sunny 84 28.9 70 21.1 63 63 VRB 3 6 30.01 1016 10 16 0.00 0.00
11:53 am 11:53 Sunny 87 30.6 69 20.6 55 55 Calm 30.01 1016 10 16 0.00 0.00
12:53 pm 12:53 Mostly Sunny 91 32.8 69 20.6 49 49 ENE 3 6 30.01 1016 10 16 0.00 0.00
1:53 pm 13:53 Mostly Sunny 93 33.9 70 21.1 47 47 VRB 5 7 29.98 1015 10 16 0.00 0.00
2:53 pm 14:53 Mostly Sunny 91 32.8 68 20 47 47 W 6 9 29.96 1015 10 16 0.00 0.00
3:53 pm 15:53 Mostly Cloudy 87 30.6 71 21.7 59 59 SW 9 15 29.94 1014 10 16 0.00 0.00
4:53 pm 16:53 Sunny 85 29.4 71 21.7 63 63 WSW 5 7 29.93 1014 10 16 0.00 0.00
5:53 pm 17:53 Sunny 87 30.6 71 21.7 59 59 NW 3 6 29.93 1013 10 16 0.00 0.00
6:53 pm 18:53 Sunny 89 31.7 67 19.4 48 48 N 3 6 29.91 1013 10 16 0.00 0.00
7:53 pm 19:53 Sunny 87 30.6 73 22.8 63 63 Calm 29.90 1013 10 16 0.00 0.00
8:53 pm 20:53 Sunny 82 27.8 74 23.3 77 77 Calm 29.93 1013 10 16 0.00 0.00
9:53 pm 21:53 Clear 78 25.6 73 22.8 85 85 Calm 29.93 1014 10 16 0.00 0.00
10:53 pm 22:53 Mostly Clear 77 25 72 22.2 85 85 Calm 29.94 1014 10 16 0.00 0.00
11:53 pm 23:53 Partly Cloudy 77 25 72 22.2 85 85 Calm 29.96 1014 10 16 0.00 0.00

Powered by AerisWeather